STARLINK-36356

Last updated on Sun Apr 12 2026 00:02:07 GMT+0000 (Coordinated Universal Time)

1 68242U 26054L 26101.53618073 .00137868 00000+0 88857-3 0 9993 2 68242 53.1566 148.4470 0000926 119.8809 240.2303 15.75248883 3964
UTC large
Height (km)
Speed (km/s)
/
Latitude / Longitude
Inclination (degrees)
Orbital Period (minutes)
Azimuth
Elevation
Range (km)
Doppler Factor

Next 0 passes for location: London (51.5072 / 0.1276)

Sorry there are no passes over London.
STARLINK-36356